TA3KB-13 Weather Reports


Display with metric or nautical units.
time (UTC)temp
F
wind
direction
speed
MPH
gust
MPH
rain 1hr
in
rain 24hr
in
rain mn
in
humidity
%
barometer
mb
20260506162032 79 315 0.0 0.0 0.00 0.00 0.00 41 458.4
20260506161302 79 315 0.0 0.0 0.00 0.00 0.00 41 458.6
20260506160532 80 315 0.0 0.0 0.00 0.00 0.00 41 458.6
20260506155802 80 315 0.0 0.0 0.00 0.00 0.00 41 458.6
20260506155032 80 315 0.0 0.0 0.00 0.00 0.00 41 458.6
20260506154302 80 315 0.0 0.0 0.00 0.00 0.00 41 458.6
20260506153532 80 0 0.0 0.0 0.00 0.00 0.00 41 458.6
20260506152802 80 315 0.0 0.0 0.00 0.00 0.00 41 458.6
20260506152031 80 45 0.0 0.0 0.00 0.00 0.00 41 458.6
20260506151301 80 315 0.0 0.0 0.00 0.00 0.00 41 458.5
20260506150531 80 315 0.0 0.0 0.00 0.00 0.00 41 458.6
20260506145801 80 315 0.0 0.0 0.00 0.00 0.00 41 458.5
20260506145031 81 315 0.0 0.0 0.00 0.00 0.00 41 458.5
20260506144301 81 0 0.0 0.0 0.00 0.00 0.00 41 458.6
20260506143531 82 0 0.0 0.0 0.00 0.00 0.00 42 458.5
20260506142801 82 315 0.0 0.0 0.00 0.00 0.00 42 458.5
20260506142031 82 315 0.0 0.0 0.00 0.00 0.00 42 458.6
20260506141301 82 0 0.0 0.0 0.00 0.00 0.00 42 458.6
20260506140531 81 315 0.0 0.0 0.00 0.00 0.00 42 458.6
20260506135801 81 315 0.0 0.0 0.00 0.00 0.00 42 458.5
20260506135031 81 0 0.0 0.0 0.00 0.00 0.00 41 458.5
20260506134301 81 315 0.0 0.0 0.00 0.00 0.00 41 458.6
20260506133531 81 0 0.0 0.0 0.00 0.00 0.00 41 458.5
20260506132801 82 315 0.0 0.0 0.00 0.00 0.00 41 458.6
20260506132031 82 315 0.0 0.0 0.00 0.00 0.00 42 458.5
20260506131300 82 0 0.0 0.0 0.00 0.00 0.00 43 458.5
20260506130531 82 315 0.0 0.0 0.00 0.00 0.00 43 458.5
20260506125800 82 315 0.0 0.0 0.00 0.00 0.00 42 458.6
20260506125030 82 0 0.0 0.0 0.00 0.00 0.00 43 458.6
20260506124300 82 0 0.0 0.0 0.00 0.00 0.00 42 458.6
20260506123530 82 0 0.0 0.0 0.00 0.00 0.00 43 458.5
20260506122800 82 0 0.0 0.0 0.00 0.00 0.00 43 458.6
20260506122030 82 315 0.0 0.0 0.00 0.00 0.00 43 458.5
20260506121300 82 0 0.0 0.0 0.00 0.00 0.00 42 458.5
20260506120530 82 315 0.0 0.0 0.00 0.00 0.00 42 458.6
20260506115800 82 0 0.0 0.0 0.00 0.00 0.00 41 458.5
20260506115030 82 315 0.0 0.0 0.00 0.00 0.00 43 458.5
20260506114300 82 315 0.0 0.0 0.00 0.00 0.00 43 458.6
20260506113530 83 0 0.0 0.0 0.00 0.00 0.00 44 458.5
20260506112800 83 315 0.0 0.0 0.00 0.00 0.00 46 458.6
20260506112030 83 0 0.0 0.0 0.00 0.00 0.00 46 458.6
20260506111300 83 0 0.0 0.0 0.00 0.00 0.00 46 458.6
20260506110530 83 0 0.0 0.0 0.00 0.00 0.00 47 458.6
20260506105800 83 315 0.0 0.0 0.00 0.00 0.00 46 458.6
20260506105030 83 0 0.0 0.0 0.00 0.00 0.00 47 458.6
20260506104259 83 315 0.0 0.0 0.00 0.00 0.00 47 458.5
20260506103529 83 0 0.0 0.0 0.00 0.00 0.00 49 458.5
20260506102759 83 0 0.0 0.0 0.00 0.00 0.00 48 458.6
20260506102029 84 0 0.0 0.0 0.00 0.00 0.00 50 458.5
20260506101259 83 315 0.0 0.0 0.00 0.00 0.00 52 458.6
20260506100529 83 315 0.0 0.0 0.00 0.00 0.00 51 458.6
20260506095759 84 315 0.0 0.0 0.00 0.00 0.00 53 458.5
20260506095029 84 270 0.0 0.0 0.00 0.00 0.00 56 458.6
20260506094259 84 270 0.0 0.0 0.00 0.00 0.00 57 458.6
20260506093529 84 315 0.0 0.0 0.00 0.00 0.00 59 458.6
20260506092759 85 315 0.0 0.0 0.00 0.00 0.00 63 458.6
20260506092029 84 0 0.0 0.0 0.00 0.00 0.00 66 458.6
20260506091259 83 0 0.0 0.0 0.00 0.00 0.00 64 458.6
20260506090529 83 315 0.0 0.0 0.00 0.00 0.00 61 458.6
20260506085759 83 315 0.0 0.0 0.00 0.00 0.00 63 458.6
20260506085029 82 0 0.0 0.0 0.00 0.00 0.00 63 458.6
20260506084258 82 45 0.0 0.0 0.00 0.00 0.00 64 458.6
20260506083529 82 0 0.0 0.0 0.00 0.00 0.00 66 458.6
20260506082758 82 315 0.0 0.0 0.00 0.00 0.00 67 458.6
20260506082028 82 315 0.0 0.0 0.00 0.00 0.00 68 458.6
20260506081258 82 0 0.0 0.0 0.00 0.00 0.00 69 458.6
20260506080528 81 315 0.0 0.0 0.00 0.00 0.00 68 458.6
20260506073528 80 0 0.0 0.0 0.00 0.00 0.00 71 458.6
20260506072758 79 315 0.0 0.0 0.00 0.00 0.00 72 458.5
20260506072028 79 315 0.0 0.0 0.00 0.00 0.00 73 458.5
20260506071258 79 315 0.0 0.0 0.00 0.00 0.00 75 458.6
20260506070528 78 315 0.0 0.0 0.00 0.00 0.00 75 458.6
20260506062028 75 0 0.0 0.0 0.00 0.00 0.00 76 458.5
20260506061258 74 315 0.0 0.0 0.00 0.00 0.00 77 458.6
20260506060527 73 315 0.0 0.0 0.00 0.00 0.00 77 458.5
20260506051257 68 315 0.0 0.0 0.00 0.00 0.00 76 458.4
20260506050527 67 315 0.0 0.0 0.00 0.00 0.00 76 458.5
20260506045027 64 315 0.0 0.0 0.00 0.00 0.00 77 458.5
20260506044257 63 270 0.0 0.0 0.00 0.00 0.00 78 458.4
20260506043527 61 315 0.0 0.0 0.00 0.00 0.00 78 458.4
20260506042757 59 315 0.0 0.0 0.00 0.00 0.00 79 458.5
20260506042027 57 315 0.0 0.0 0.00 0.00 0.00 77 458.4
20260506041257 55 270 0.0 0.0 0.00 0.00 0.00 75 458.4
20260506040527 54 270 0.0 0.0 0.00 0.00 0.00 72 458.4
20260506035757 52 270 0.0 0.0 0.00 0.00 0.00 69 458.4
20260506035027 51 270 0.0 0.0 0.00 0.00 0.00 65 458.4
20260506034256 51 0 0.0 0.0 0.00 0.00 0.00 63 458.4
20260506033528 51 0 0.0 0.0 0.00 0.00 0.00 61 458.4
20260506032756 50 0 0.0 0.0 0.00 0.00 0.00 61 458.4
20260506032026 50 0 0.0 0.0 0.00 0.00 0.00 61 458.4
20260506031256 50 0 0.0 0.0 0.00 0.00 0.00 60 458.4
20260506030526 50 180 0.0 0.0 0.00 0.00 0.00 59 458.4
20260506025756 50 180 0.0 0.0 0.00 0.00 0.00 58 458.4
20260506025026 51 0 0.0 0.0 0.00 0.00 0.00 60 458.4
20260506024256 51 0 0.0 0.0 0.00 0.00 0.00 60 458.4
20260506023526 51 180 0.0 0.0 0.00 0.00 0.00 58 458.4
20260506022756 51 0 0.0 0.0 0.00 0.00 0.00 59 458.4
20260506022026 51 135 0.0 0.0 0.00 0.00 0.00 60 458.4
20260506021256 51 180 0.0 0.0 0.00 0.00 0.00 59 458.4
20260506020526 51 180 0.0 0.0 0.00 0.00 0.00 59 458.4
20260506015756 51 0 0.0 0.0 0.00 0.00 0.00 60 458.4
20260506015026 51 180 0.0 0.0 0.00 0.00 0.00 59 458.4
20260506014256 51 180 0.0 0.0 0.00 0.00 0.00 60 458.4
20260506013525 51 180 0.0 0.0 0.00 0.00 0.00 59 458.4
20260506012755 51 135 0.0 0.0 0.00 0.00 0.00 59 458.4
20260506012025 52 180 0.0 0.0 0.00 0.00 0.00 59 458.4
20260506011255 52 180 0.0 0.0 0.00 0.00 0.00 59 458.4
20260506010525 52 180 0.0 0.0 0.00 0.00 0.00 58 458.4
20260506005755 52 180 0.0 0.0 0.00 0.00 0.00 59 458.4
20260506005025 52 180 0.0 0.0 0.00 0.00 0.00 58 458.4
20260506004255 52 180 0.0 0.0 0.00 0.00 0.00 58 458.4
20260506003525 52 180 0.0 0.0 0.00 0.00 0.00 57 458.4
20260506002755 52 180 0.0 0.0 0.00 0.00 0.00 58 458.4
20260506002025 52 180 0.0 0.0 0.00 0.00 0.00 58 458.4
20260506001255 52 135 0.0 0.0 0.00 0.00 0.00 57 458.4
20260506000525 53 180 0.0 0.0 0.00 0.00 0.00 58 458.4
20260505235755 53 180 0.0 0.0 0.00 0.00 0.00 58 458.4
20260505235025 53 180 0.0 0.0 0.00 0.00 0.00 58 458.5
20260505234255 53 180 0.0 0.0 0.00 0.00 0.00 58 458.4
20260505233525 53 180 0.0 0.0 0.00 0.00 0.00 58 458.4
20260505232754 54 180 0.0 0.0 0.00 0.00 0.00 58 458.4
20260505232025 54 180 0.0 0.0 0.00 0.00 0.00 58 458.4
20260505231255 54 180 0.0 0.0 0.00 0.00 0.00 58 458.4
20260505230524 54 0 0.0 0.0 0.00 0.00 0.00 58 458.4
20260505225755 54 0 0.0 0.0 0.00 0.00 0.00 58 458.4
20260505225024 55 180 0.0 0.0 0.00 0.00 0.00 58 458.4
20260505224254 55 0 0.0 0.0 0.00 0.00 0.00 58 458.4
20260505223524 55 180 0.0 0.0 0.00 0.00 0.00 58 458.4
20260505222754 55 180 0.0 0.0 0.00 0.00 0.00 58 458.4
20260505222024 55 135 0.0 0.0 0.00 0.00 0.00 57 458.4
20260505221254 55 135 0.0 0.0 0.00 0.00 0.00 57 458.4
20260505220524 55 0 0.0 0.0 0.00 0.00 0.00 57 458.4
20260505215754 55 180 0.0 0.0 0.00 0.00 0.00 57 458.4
20260505215024 55 180 0.0 0.0 0.00 0.00 0.00 57 458.4
20260505214254 56 270 0.0 0.0 0.00 0.00 0.00 57 458.4
20260505213524 56 0 0.0 0.0 0.00 0.00 0.00 57 458.4
20260505212754 56 180 0.0 0.0 0.00 0.00 0.00 56 458.4
20260505212024 56 135 0.0 0.0 0.00 0.00 0.00 56 458.4
20260505211254 56 135 0.0 0.0 0.00 0.00 0.00 55 458.4
20260505210524 57 135 0.0 0.0 0.00 0.00 0.00 55 458.4
20260505205753 57 135 0.0 0.0 0.00 0.00 0.00 56 458.4
20260505205023 57 180 0.0 0.0 0.00 0.00 0.00 56 458.5
20260505204253 58 180 0.0 0.0 0.00 0.00 0.00 55 458.4
20260505203523 58 180 0.0 0.0 0.00 0.00 0.00 56 458.4
20260505202753 59 0 0.0 0.0 0.00 0.00 0.00 57 458.5
20260505202023 59 0 0.0 0.0 0.00 0.00 0.00 56 458.4
20260505201253 59 135 0.0 0.0 0.00 0.00 0.00 55 458.4
20260505200523 59 180 0.0 0.0 0.00 0.00 0.00 55 458.4
20260505195753 60 180 0.0 0.0 0.00 0.00 0.00 54 458.5
20260505195023 60 180 0.0 0.0 0.00 0.00 0.00 55 458.4
20260505194253 61 180 0.0 0.0 0.00 0.00 0.00 55 458.5
20260505193523 61 135 0.0 0.0 0.00 0.00 0.00 55 458.4
20260505192753 62 180 0.0 0.0 0.00 0.00 0.00 55 458.5
20260505192023 62 180 0.0 0.0 0.00 0.00 0.00 55 458.4
20260505191253 62 180 0.0 0.0 0.00 0.00 0.00 56 458.5
20260505190523 63 0 0.0 0.0 0.00 0.00 0.00 55 458.4
20260505185753 64 180 0.0 0.0 0.00 0.00 0.00 55 458.5
20260505185023 64 0 0.0 0.0 0.00 0.00 0.00 55 458.4
20260505184253 65 0 0.0 0.0 0.00 0.00 0.00 56 458.4
20260505183523 66 270 0.0 0.0 0.00 0.00 0.00 57 458.4
20260505182752 66 0 0.0 0.0 0.00 0.00 0.00 57 458.5
20260505182022 66 0 0.0 0.0 0.00 0.00 0.00 56 458.5
20260505181252 66 135 0.0 0.0 0.00 0.00 0.00 56 458.5
20260505180522 66 0 0.0 0.0 0.00 0.00 0.00 55 458.5
20260505175752 67 0 0.0 0.0 0.00 0.00 0.00 55 458.5
20260505175022 68 0 0.0 0.0 0.00 0.00 0.00 55 458.4
20260505174252 68 0 0.0 0.0 0.00 0.00 0.00 56 458.5
20260505173522 69 0 0.0 0.0 0.00 0.00 0.00 55 458.5
20260505172752 69 0 0.0 0.0 0.00 0.00 0.00 56 458.5
20260505172022 69 0 0.0 0.0 0.00 0.00 0.00 56 458.5
20260505171252 69 270 0.0 0.0 0.00 0.00 0.00 56 458.5
20260505170522 70 270 0.0 0.0 0.00 0.00 0.00 56 458.5
20260505165752 70 315 0.0 0.0 0.00 0.00 0.00 56 458.5
20260505165022 70 315 0.0 0.0 0.00 0.00 0.00 55 458.5
20260505164252 70 315 0.0 0.0 0.00 0.00 0.00 55 458.5
20260505163522 71 0 0.0 0.0 0.00 0.00 0.00 55 458.5
20260505162752 71 45 0.0 0.0 0.00 0.00 0.00 56 458.5